Weather History for WBGG - December, 2013

Change the Weather History Date:

Monday, December 2, 2013

  Actual Average Record
Temperature  
Mean Temperature 80 °F -  
Max Temperature 88 °F 87 °F - ()
Min Temperature 73 °F 73 °F - ()
Cooling Degree Days 16    
Growing Degree Days 30 (Base 50)    
Moisture  
Dew Point 75 °F    
Average Humidity 85    
Maximum Humidity 100    
Minimum Humidity 58    
Precipitation  
Precipitation 0.91 in 0.65 in - ()
Sea Level Pressure  
Sea Level Pressure 29.77 in    
Wind  
Wind Speed 4 mph ()    
Max Wind Speed 16 mph    
Max Gust Speed -    
Visibility 6.4 miles    
Events Rain , Thunderstorm    
T = Trace of Precipitation, MM = Missing Value Source: Averaged Metar Reports

Daily Weather History Graph

Daily Weather History Graph

Search for Another Location

Airport or City:

Trip Planner

Search our weather history database for the weather conditions in past years. The results will help you decide how hot, cold, wet, or windy it might be!

Date:

Astronomy

Dec. 02, 2013 Rise Set
Actual Time 6:26 AM MYT 6:29 PM MYT
Civil Twilight 6:04 AM MYT 6:51 PM MYT
Nautical Twilight 5:38 AM MYT 7:17 PM MYT
Astronomical Twilight 5:12 AM MYT 7:43 PM MYT
Moon 5:27 AM MYT (12/2) 5:52 PM MYT (12/2)
Length of Visible Light 12h 47m
Length of Day
12h 02m
Waning Crescent, 1% of the Moon is Illuminated
Dec 2
Waning Crescent
Dec 3
New
Dec 9
First Quarter
Dec 17
Full
Dec 25
Last Quarter

Hourly Weather History & Observations

Time (MYT) Temp. Heat Index Dew Point Humidity Pressure Visibility Wind Dir Wind Speed Gust Speed Precip Events Conditions
12:00 AM 75.2 °F - 75.2 °F 100% 29.80 in 6.2 mi SSW 1.2 mph - N/A   Mostly Cloudy
12:30 AM 75.2 °F - 75.2 °F 100% 29.80 in 6.2 mi Calm Calm - N/A   Mostly Cloudy
1:00 AM 75.2 °F - 75.2 °F 100% 29.80 in 6.2 mi SSE 2.3 mph - N/A   Mostly Cloudy
1:30 AM 75.2 °F - 73.4 °F 94% 29.80 in 6.2 mi SSE 3.5 mph - N/A   Mostly Cloudy
2:00 AM 75 °F - 74 °F 96% 29.79 in 9 mi West 1.2 mph - -   Partly Cloudy
2:00 AM 75.2 °F - 73.4 °F 94% 29.77 in 6.2 mi West 1.2 mph - N/A   Mostly Cloudy
2:30 AM 75.2 °F - 75.2 °F 100% 29.77 in 6.2 mi SE 2.3 mph - N/A   Mostly Cloudy
3:00 AM 75.2 °F - 75.2 °F 100% 29.77 in 6.2 mi ESE 2.3 mph - N/A   Mostly Cloudy
3:30 AM 75.2 °F - 73.4 °F 94% 29.77 in 6.2 mi East 2.3 mph - N/A   Mostly Cloudy
4:00 AM 73.4 °F - 73.4 °F 100% 29.74 in 6.2 mi SE 3.5 mph - N/A   Mostly Cloudy
4:30 AM 73.4 °F - 73.4 °F 100% 29.74 in 6.2 mi SE 4.6 mph - N/A   Mostly Cloudy
5:00 AM 74 °F - 74 °F 98% 29.76 in 9 mi SSE 5.8 mph - -   Partly Cloudy
5:00 AM 73.4 °F - 73.4 °F 100% 29.74 in 6.2 mi SSE 5.8 mph - N/A   Mostly Cloudy
5:30 AM 73.4 °F - 73.4 °F 100% 29.77 in 6.2 mi SSE 3.5 mph - N/A   Mostly Cloudy
6:00 AM 73.4 °F - 73.4 °F 100% 29.77 in 6.2 mi SE 3.5 mph - N/A   Mostly Cloudy
6:30 AM 73.4 °F - 73.4 °F 100% 29.77 in 6.2 mi SE 2.3 mph - N/A   Mostly Cloudy
7:00 AM 73.4 °F - 73.4 °F 100% 29.77 in 6.2 mi ENE 2.3 mph - N/A   Mostly Cloudy
7:30 AM 75.2 °F - 73.4 °F 94% 29.80 in 6.2 mi East 1.2 mph - N/A   Mostly Cloudy
8:00 AM 77 °F - 74 °F 89% 29.81 in 12 mi SE 4.6 mph - -   Scattered Clouds
8:00 AM 77.0 °F - 75.2 °F 94% 29.80 in 6.2 mi SE 4.6 mph - N/A   Mostly Cloudy
8:30 AM 78.8 °F - 73.4 °F 83% 29.80 in 6.2 mi SE 6.9 mph - N/A   Mostly Cloudy
9:00 AM 80.6 °F 86.2 °F 75.2 °F 84% 29.80 in 6.2 mi SE 6.9 mph - N/A   Mostly Cloudy
9:30 AM 82.4 °F 89.5 °F 75.2 °F 79% 29.80 in 6.2 mi SE 8.1 mph - N/A   Mostly Cloudy
10:00 AM 84.2 °F 92.3 °F 75.2 °F 74% 29.80 in 6.2 mi SSE 5.8 mph - N/A   Mostly Cloudy
10:30 AM 84.2 °F 90.9 °F 73.4 °F 70% 29.80 in 6.2 mi SSE 9.2 mph - N/A   Mostly Cloudy
11:00 AM 85 °F - 74 °F 63% 29.81 in 16 mi SE 11.5 mph - -   Partly Cloudy
11:00 AM 84.2 °F 92.3 °F 75.2 °F 74% 29.80 in 6.2 mi SE 11.5 mph - N/A   Mostly Cloudy
11:30 AM 86.0 °F 95.1 °F 75.2 °F 70% 29.80 in 6.2 mi SE 10.4 mph - N/A   Mostly Cloudy
12:00 PM 86.0 °F 95.1 °F 75.2 °F 70% 29.77 in 6.2 mi SSE 10.4 mph - N/A   Mostly Cloudy
12:30 PM 86.0 °F 93.4 °F 73.4 °F 66% 29.77 in 6.2 mi SSE 11.5 mph - N/A   Mostly Cloudy
1:00 PM 87.8 °F 97.6 °F 75.2 °F 66% 29.74 in 6.2 mi SSE 10.4 mph - N/A   Mostly Cloudy
1:30 PM 87.8 °F 97.6 °F 75.2 °F 66% 29.74 in 6.2 mi SE 9.2 mph - N/A   Mostly Cloudy
2:00 PM 87 °F - 74 °F 58% 29.74 in 16 mi SE 10.4 mph - -   Partly Cloudy
2:00 PM 86.0 °F 93.4 °F 73.4 °F 66% 29.74 in 6.2 mi SE 10.4 mph - N/A   Mostly Cloudy
2:30 PM 86.0 °F 95.1 °F 75.2 °F 70% 29.71 in 6.2 mi SE 9.2 mph - N/A   Mostly Cloudy
3:00 PM 86.0 °F 95.1 °F 75.2 °F 70% 29.71 in 6.2 mi ESE 6.9 mph - N/A   Mostly Cloudy
3:30 PM 87.8 °F 97.6 °F 75.2 °F 66% 29.68 in 6.2 mi ESE 8.1 mph - N/A   Mostly Cloudy
4:00 PM 87.8 °F 99.7 °F 77.0 °F 70% 29.68 in 6.2 mi SE 8.1 mph - N/A   Mostly Cloudy
4:30 PM 87.8 °F 97.6 °F 75.2 °F 66% 29.68 in 6.2 mi SE 6.9 mph - N/A   Mostly Cloudy
5:00 PM 87 °F - 76 °F 64% 29.70 in 5 mi South 3.5 mph - -   Partly Cloudy
5:00 PM 87.8 °F 99.7 °F 77.0 °F 70% 29.68 in 5.0 mi South 3.5 mph - N/A   Mostly Cloudy
5:30 PM 84.2 °F 92.3 °F 75.2 °F 74% 29.71 in 5.0 mi West 9.2 mph - N/A   Mostly Cloudy
6:00 PM 80.6 °F 85.4 °F 73.4 °F 79% 29.71 in 4.3 mi West 16.1 mph - N/A   Mostly Cloudy
6:30 PM 78.8 °F - 73.4 °F 83% 29.74 in 3.1 mi West 11.5 mph - N/A Rain Light Rain
7:00 PM 77.0 °F - 75.2 °F 94% 29.77 in 0.5 mi SW 5.8 mph - N/A Rain Heavy Rain
7:30 PM 77.0 °F - 75.2 °F 94% 29.77 in 1.9 mi NNW 3.5 mph - N/A Rain , Thunderstorm Thunderstorms and Rain
8:00 PM 77 °F - 75 °F 92% 29.80 in 4 mi NW 5.8 mph - - Rain , Thunderstorm Thunderstorms and Rain
8:00 PM 77.0 °F - 75.2 °F 94% 29.77 in 3.7 mi NW 5.8 mph - N/A Rain , Thunderstorm Light Thunderstorms and Rain
8:30 PM 77.0 °F - 75.2 °F 94% 29.80 in 5.0 mi NW 2.3 mph - N/A Rain , Thunderstorm Light Thunderstorms and Rain
9:00 PM 77.0 °F - 75.2 °F 94% 29.83 in 6.2 mi WSW 3.5 mph - N/A Rain Light Rain
9:30 PM 77.0 °F - 75.2 °F 94% 29.83 in 6.2 mi South 4.6 mph - N/A   Mostly Cloudy
10:00 PM 77.0 °F - 75.2 °F 94% 29.83 in 6.2 mi South 2.3 mph - N/A   Mostly Cloudy
10:30 PM 77.0 °F - 75.2 °F 94% 29.83 in 6.2 mi SSW 2.3 mph - N/A   Mostly Cloudy
11:00 PM 76 °F - 75 °F 96% 29.86 in 9 mi South 3.5 mph - -   Partly Cloudy
11:00 PM 77.0 °F - 75.2 °F 94% 29.83 in 6.2 mi South 3.5 mph - N/A   Mostly Cloudy
11:30 PM 77.0 °F - 75.2 °F 94% 29.83 in 6.2 mi SSW 2.3 mph - N/A   Mostly Cloudy